{"data":{"norad_id":51638,"intl_designator":"2022-012S","name":"ONEWEB-0444","alt_names":[],"object_type":"PAYLOAD","status":"ACTIVE","operator":null,"country":"UK","launch_date":"2022-02-10","launch_site_code":"FRGUI","launch_vehicle":null,"mission":null,"orbit_class":"UNKNOWN","rcs_meters":null,"size_class":null,"mass_kg":null,"dimensions":null,"purposes":["comms"],"wikipedia_slug":null,"has_3d_model":false,"image_url":null,"decayed_at":null,"tle_current":{"epoch":"2026-05-25T02:41:49.992288Z","epoch_age_seconds":65442,"freshness":"FRESH","line1":"1 51638U 22012S   26145.11238417 -.00000604  00000+0 -17678-2 0  9997","line2":"2 51638  87.8848  40.8611 0001960  77.2817 282.8529 13.10370114206315","mean_motion":13.10370114,"eccentricity":0.000196,"inclination_deg":87.8848,"raan_deg":40.8611,"arg_perigee_deg":77.2817,"mean_anomaly_deg":282.8529,"bstar":-0.0017678,"rev_number":20631,"period_min":109.89261618645,"perigee_km":1220.2380285096,"apogee_km":1223.2171754335,"semimajor_km":7599.8646019715,"source":"CELESTRAK","updated_at":"2026-05-25T13:38:22.579374Z"}}}